Погода в Удачном

Россия / Республика Саха (Якутия)     66°24′25″N   112°18′22″E
темп.,
°C
ветер,
м/с
пор.,
м/с
влажн.,
%
обл.,
%
осадки,
мм/ч
давл.,
гПа
погр.,
м
31 июля, сб
сб3100:00+17ююз22350 0.0 101611
03:00+16ю22370 0.0 101711
06:00+17ю22440 0.0 101811
09:00+21ю23350 0.0 1018361
12:00+24ю44280 0.0 10171286
15:00+26ю55230 0.0 10171620
18:00+26ю55220 0.0 10161684
21:00+23ююз33335 0.0 101631
1 августа, вс
вс100:00+19ю33355 0.0 101711
03:00+17ю22395 0.0 101811
06:00+18ююв22435 0.0 101811
09:00+23ю23314 0.0 1017295
12:00+26ю34261 0.0 10171477
15:00+27ю33245 0.0 10161920
18:00+27ююв22240 0.0 10151963
21:00+25вюв11405 0.0 101511
2 августа, пн
пн200:00+20всв22375 0.0 101511
03:00+18всв11430 0.0 101511
06:00+20всв22465 0.0 101411
09:00+25всв34325 0.0 1014344
12:00+28всв562736 0.0 10131648
15:00+29всв6624100 0.0 10122199
18:00+29св8824100 0.0 10112511
21:00+25св71236100 0.0 1012240
3 августа, вт
вт300:00+21св61542100 0.0 1012225
03:00+19св61248100 0.0 1013174
06:00+18св5125667 0.0 1013207
09:00+23св913475 0.0 1013783
12:00+26всв1112355 0.0 10121610
15:00+28св1011325 0.0 10112234
18:00+27св1111337 0.0 10112182
21:00+23св1115466 0.0 1012643
4 августа, ср
ср400:00+19св916586 0.0 1013324
03:00+16св7126999 0.0 1013224
06:00+15св612686 0.0 1013251
09:00+19св810436 0.0 1013535
12:00+22св893241 0.0 1012905
15:00+24св89280 0.0 10111238
18:00+24св88270 0.0 10111417
21:00+21св711340 0.0 1011285